CW1490 Weather Reports


time (UTC)temp
F
wind
direction
speed
knots
gust
knots
rain 1hr
in
rain 24hr
in
rain mn
in
humidity
%
barometer
mb
20260903193011 76 150 3.5 8.7 0.00 0.02 0.02 82 1012.4
20260903192503 76 232 2.6 7.0 0.00 0.02 0.02 81 1012.5
20260903192008 76 178 2.6 7.0 0.00 0.02 0.02 82 1012.6
20260903191529 75 213 3.5 7.0 0.00 0.02 0.02 84 1012.7
20260903191022 74 196 2.6 6.1 0.00 0.02 0.02 83 1012.7
20260903190510 74 187 1.7 5.2 0.00 0.02 0.02 83 1012.9
20260903190049 74 178 0.9 4.3 0.00 0.02 0.02 84 1013.0
20260903185511 73 205 0.9 3.5 0.00 0.02 0.02 84 1013.0
20260903185014 73 78 0.9 3.5 0.00 0.02 0.02 85 1012.9
20260903184509 73 178 0.9 1.7 0.00 0.02 0.02 85 1013.0
20260903184006 73 51 0.9 3.5 0.00 0.02 0.02 84 1013.0
20260903183503 73 291 0.9 5.2 0.00 0.02 0.02 86 1013.1
20260903183009 73 63 2.6 6.1 0.00 0.02 0.02 85 1013.1
20260903182504 73 31 2.6 6.1 0.00 0.02 0.02 85 1013.1
20260903182004 73 79 2.6 8.7 0.00 0.02 0.02 84 1013.2
20260903181531 73 44 3.5 8.7 0.00 0.02 0.02 84 1013.2
20260903181009 73 38 3.5 6.1 0.00 0.02 0.02 86 1013.2
20260903180508 72 49 3.5 4.3 0.00 0.02 0.02 86 1013.2
20260903180033 71 41 0.9 7.8 0.00 0.02 0.02 86 1013.1
20260903175510 72 47 3.5 7.8 0.00 0.02 0.02 87 1013.2
20260903175010 71 41 2.6 7.0 0.00 0.02 0.02 87 1013.2
20260903174526 71 65 2.6 7.0 0.00 0.02 0.02 87 1013.2
20260903174014 71 41 2.6 6.1 0.00 0.02 0.02 88 1013.2
20260903173512 71 51 1.7 6.1 0.00 0.02 0.02 88 1013.3
20260903173004 71 48 2.6 5.2 0.00 0.02 0.02 87 1013.3
20260903172504 71 57 2.6 7.0 0.00 0.02 0.02 87 1013.6
20260903172003 71 68 3.5 7.0 0.00 0.02 0.02 87 1013.7
20260903171522 71 48 2.6 5.2 0.00 0.02 0.02 87 1013.6
20260903171007 70 51 1.7 2.6 0.00 0.02 0.02 87 1013.7
20260903170506 70 51 0.9 3.5 0.00 0.02 0.02 86 1013.8
20260903170051 70 51 0.9 7.0 0.00 0.02 0.02 87 1013.8
20260903165509 70 26 1.7 7.8 0.00 0.02 0.02 87 1013.8
20260903165020 71 13 3.5 7.8 0.00 0.02 0.02 86 1013.8
20260903164522 71 40 2.6 7.0 0.00 0.02 0.02 88 1013.8
20260903164012 71 34 0.9 7.0 0.00 0.02 0.02 86 1013.8
20260903163522 71 51 2.6 7.0 0.00 0.02 0.02 85 1013.9
20260903163035 71 63 1.7 7.0 0.00 0.02 0.02 87 1013.9
20260903162515 70 33 2.6 7.0 0.00 0.02 0.02 87 1013.8
20260903162017 70 59 1.7 6.1 0.00 0.02 0.02 87 1013.9
20260903161508 69 84 3.5 6.1 0.00 0.02 0.02 88 1014.0
20260903161004 69 44 1.7 5.2 0.00 0.02 0.02 88 1014.1
20260903160508 69 26 1.7 5.2 0.00 0.02 0.02 88 1014.2
20260903160015 69 61 2.6 7.0 0.00 0.02 0.02 88 1014.2
20260903155508 69 61 1.7 7.0 0.00 0.02 0.02 88 1014.2
20260903155010 69 84 3.5 7.0 0.00 0.02 0.02 88 1014.2
20260903154519 69 221 0.9 7.0 0.00 0.02 0.02 87 1014.1
20260903154015 69 59 4.3 7.0 0.00 0.02 0.02 88 1014.0
20260903153510 69 59 2.6 5.2 0.00 0.02 0.02 88 1014.1
20260903153028 68 51 1.7 7.0 0.00 0.02 0.02 88 1014.2
20260903152516 68 44 2.6 7.0 0.00 0.02 0.02 88 1014.3
20260903152018 69 30 1.7 6.1 0.00 0.02 0.02 87 1014.3
20260903151531 68 61 0.9 3.5 0.00 0.02 0.02 92 1014.4
20260903151016 67 265 1.7 4.3 0.00 0.02 0.02 89 1014.3
20260903150514 66 196 0.9 4.3 0.00 0.02 0.02 90 1014.4
20260903150042 66 265 0.9 3.5 0.00 0.02 0.02 90 1014.4
20260903145507 66 26 0.9 3.5 0.00 0.02 0.02 90 1014.6
20260903145008 66 193 0.9 3.5 0.00 0.02 0.02 90 1014.7
20260903144517 66 153 0.9 3.5 0.00 0.02 0.02 91 1014.6
20260903144011 66 158 0.9 5.2 0.00 0.02 0.02 91 1014.7
20260903143510 66 137 0.9 5.2 0.00 0.02 0.02 91 1014.7
20260903143023 65 137 1.7 5.2 0.00 0.02 0.02 92 1014.7
20260903142511 65 309 0.9 3.5 0.00 0.02 0.02 92 1014.7
20260903142015 65 178 0.9 4.3 0.00 0.02 0.02 92 1014.8
20260903141527 65 221 1.7 4.3 0.00 0.02 0.02 92 1014.8
20260903141015 65 178 1.7 5.2 0.00 0.02 0.02 93 1014.9
20260903140517 65 298 2.6 5.2 0.00 0.02 0.02 93 1014.7
20260903140037 65 208 3.5 5.2 0.00 0.02 0.02 93 1014.7
20260903135517 64 216 1.7 4.3 0.00 0.02 0.02 94 1014.6
20260903135015 64 221 1.7 5.2 0.00 0.02 0.02 94 1014.6
20260903134528 63 210 2.6 5.2 0.00 0.02 0.02 94 1014.7
20260903134007 63 196 2.6 5.2 0.00 0.02 0.02 94 1014.7
20260903133510 63 211 1.7 4.3 0.00 0.02 0.02 94 1014.8
20260903133024 63 196 0.9 3.5 0.00 0.02 0.02 94 1014.8
20260903132512 63 214 1.7 3.5 0.00 0.02 0.02 94 1014.9
20260903132015 63 212 0.9 4.3 0.00 0.02 0.02 94 1014.9
20260903131527 63 213 2.6 4.3 0.00 0.02 0.02 94 1014.9
20260903131018 63 191 1.7 3.5 0.00 0.02 0.02 94 1014.9
20260903130512 63 238 1.7 3.5 0.00 0.02 0.02 94 1014.9
20260903130031 63 229 1.7 4.3 0.00 0.02 0.02 94 1014.9
20260903125516 63 247 1.7 4.3 0.00 0.02 0.02 94 1014.9
20260903125021 63 190 0.9 5.2 0.00 0.02 0.02 94 1015.0
20260903124531 63 178 2.6 5.2 0.00 0.02 0.02 94 1015.0
20260903124015 63 195 3.5 5.2 0.00 0.02 0.02 94 1015.1
20260903123515 63 161 1.7 5.2 0.00 0.02 0.02 93 1015.2
20260903123033 63 198 1.7 3.5 0.00 0.02 0.02 93 1015.1
20260903122519 63 243 1.7 3.5 0.00 0.02 0.02 93 1015.3
20260903122008 62 211 1.7 3.5 0.00 0.02 0.02 93 1015.3
20260903121526 62 178 1.7 3.5 0.00 0.02 0.02 94 1015.4
20260903121010 62 221 1.7 3.5 0.00 0.02 0.02 94 1015.3
20260903120512 62 221 0.9 2.6 0.00 0.02 0.02 93 1015.3
20260903120028 62 153 0.9 6.1 0.00 0.02 0.02 93 1015.4
20260903115515 62 161 1.7 6.1 0.00 0.02 0.02 93 1015.4
20260903115016 62 229 3.5 6.1 0.00 0.02 0.02 93 1015.4
20260903114533 62 213 3.5 6.1 0.00 0.02 0.02 93 1015.5
20260903114017 62 178 1.7 5.2 0.00 0.02 0.02 93 1015.3
20260903113521 62 221 2.6 5.2 0.00 0.02 0.02 93 1015.5
20260903113033 62 205 2.6 5.2 0.00 0.02 0.02 93 1015.5
20260903112516 62 221 3.5 5.2 0.00 0.02 0.02 93 1015.6
20260903112022 62 265 0.9 4.3 0.00 0.02 0.02 93 1015.5
20260903111535 62 211 1.7 4.3 0.00 0.02 0.02 93 1015.5
20260903111020 62 196 1.7 5.2 0.00 0.02 0.02 93 1015.7
20260903110513 62 221 1.7 5.2 0.00 0.02 0.02 93 1015.7
20260903110026 62 227 1.7 4.3 0.00 0.02 0.02 93 1015.7
20260903105511 62 214 1.7 3.5 0.00 0.02 0.02 93 1015.7
20260903105016 62 238 1.7 3.5 0.00 0.02 0.02 93 1015.7
20260903104531 62 196 1.7 3.5 0.00 0.02 0.02 93 1015.7
20260903104021 62 193 0.9 3.5 0.00 0.02 0.02 93 1015.6
20260903103514 62 178 0.0 2.6 0.00 0.02 0.02 93 1015.6
20260903103030 62 51 0.0 4.3 0.00 0.02 0.02 93 1015.4
20260903102516 62 291 1.7 4.3 0.00 0.02 0.02 93 1015.4
20260903102018 62 209 1.7 3.5 0.00 0.02 0.02 93 1015.3
20260903101511 62 205 1.7 6.1 0.00 0.02 0.02 92 1015.4
20260903101004 62 218 3.5 6.1 0.00 0.02 0.02 92 1015.4
20260903100504 62 216 2.6 6.1 0.00 0.02 0.02 92 1015.4
20260903100013 62 232 3.5 6.1 0.00 0.02 0.02 92 1015.4
20260903095503 62 219 2.6 5.2 0.00 0.02 0.02 92 1015.4
20260903095003 62 245 1.7 6.1 0.00 0.02 0.02 92 1015.4
20260903094505 62 227 2.6 6.1 0.00 0.02 0.02 92 1015.5
20260903094006 62 238 2.6 5.2 0.00 0.02 0.02 92 1015.5
20260903093505 62 205 1.7 5.2 0.00 0.02 0.02 92 1015.6
20260903093006 62 265 1.7 3.5 0.00 0.02 0.02 92 1015.7
20260903092508 62 178 0.9 7.8 0.00 0.02 0.02 92 1015.6
20260903092007 62 265 1.7 7.8 0.00 0.02 0.02 92 1015.7
20260903091513 62 245 2.6 4.3 0.00 0.02 0.02 92 1015.5
20260903091008 62 213 1.7 4.3 0.00 0.02 0.02 92 1015.5
20260903090508 62 221 2.6 6.1 0.00 0.02 0.02 92 1015.6
20260903090018 62 229 2.6 6.1 0.00 0.02 0.02 92 1015.7
20260903085507 62 214 2.6 6.1 0.00 0.02 0.02 91 1015.7
20260903085007 62 196 2.6 6.1 0.00 0.02 0.02 91 1015.8
20260903084519 62 210 1.7 4.3 0.00 0.02 0.02 91 1015.9
20260903084003 62 215 2.6 4.3 0.00 0.02 0.02 91 1016.2
20260903083503 62 209 2.6 4.3 0.00 0.02 0.02 91 1016.3
20260903083007 62 178 0.9 4.3 0.00 0.02 0.02 91 1016.2
20260903082507 62 196 2.6 7.8 0.00 0.02 0.02 91 1016.1
20260903082006 62 202 2.6 7.8 0.00 0.02 0.02 91 1016.2
20260903081513 62 205 2.6 7.0 0.00 0.02 0.02 90 1016.3
20260903081010 62 207 2.6 4.3 0.00 0.02 0.02 91 1016.3
20260903080512 62 229 0.9 3.5 0.00 0.02 0.02 90 1016.3
20260903080016 62 161 0.9 1.7 0.00 0.02 0.02 90 1016.2
20260903075506 62 325 0.0 1.7 0.00 0.02 0.02 90 1016.3
20260903075010 62 309 0.0 0.9 0.00 0.02 0.02 90 1016.1
20260903074520 62 51 0.0 0.9 0.00 0.02 0.02 90 1016.1
20260903074010 62 93 0.0 1.7 0.00 0.02 0.02 90 1016.1
20260903073509 62 325 0.0 1.7 0.00 0.02 0.02 90 1016.2
20260903073019 63 291 0.0 2.6 0.00 0.02 0.02 90 1016.2
20260903072510 63 9 0.0 3.5 0.00 0.02 0.02 89 1016.2
20260903072002 63 234 1.7 4.3 0.00 0.02 0.02 89 1016.2
20260903071523 63 178 1.7 4.3 0.01 0.02 0.02 89 1016.3
20260903071003 63 201 1.7 4.3 0.01 0.02 0.02 89 1016.5
20260903070503 63 178 1.7 4.3 0.01 0.02 0.02 89 1016.6
20260903070050 63 51 0.0 2.6 0.01 0.02 0.02 88 1016.7
20260903065506 63 215 0.9 2.6 0.02 0.02 0.02 88 1016.5
20260903065010 63 232 1.7 4.3 0.02 0.02 0.02 88 1016.5
20260903064518 63 221 1.7 4.3 0.02 0.02 0.02 87 1016.5
20260903064012 63 196 0.9 2.6 0.02 0.02 0.02 87 1016.6
20260903063515 63 146 0.9 6.1 0.02 0.02 0.02 87 1016.6
20260903063022 63 51 0.0 6.1 0.02 0.02 0.02 87 1016.4
20260903062510 63 238 2.6 6.1 0.02 0.02 0.02 86 1016.3
20260903062015 63 208 1.7 7.8 0.02 0.02 0.02 86 1016.3
20260903061527 64 221 3.5 8.7 0.01 0.01 0.01 85 1016.7
20260903061013 64 178 2.6 8.7 0.01 0.01 0.01 85 1016.7
20260903060505 64 198 3.5 8.7 0.01 0.01 0.01 84 1016.9
20260903060015 64 198 4.3 8.7 0.01 0.01 0.01 83 1017.1
20260903055507 65 209 2.6 6.1 0.00 0.00 0.00 83 1017.1
20260903055005 65 205 2.6 7.0 0.00 0.00 0.00 82 1017.3
20260903054536 65 227 2.6 8.7 0.00 0.00 0.00 82 1017.4
20260903054008 65 216 3.5 8.7 0.00 0.00 0.00 81 1017.6
20260903053508 65 223 5.2 8.7 0.00 0.00 0.00 80 1017.7
20260903053024 65 221 4.3 9.6 0.00 0.00 0.00 79 1017.8
20260903052512 65 210 5.2 12.2 0.00 0.00 0.00 79 1017.9
20260903052014 65 186 4.3 12.2 0.00 0.00 0.00 78 1017.9
20260903051528 65 219 3.5 6.1 0.00 0.00 0.00 78 1017.9
20260903051016 66 214 4.3 10.4 0.00 0.00 0.00 77 1017.9
20260903050513 66 219 5.2 10.4 0.00 0.00 0.00 77 1017.8
20260903050040 66 229 1.7 9.6 0.00 0.00 0.00 76 1017.8
20260903045513 66 218 6.1 9.6 0.00 0.00 0.00 76 1017.8
20260903045006 66 265 2.6 8.7 0.00 0.00 0.00 76 1017.7
20260903044514 66 193 4.3 8.7 0.00 0.00 0.00 77 1017.7
20260903044008 66 219 4.3 8.7 0.00 0.00 0.00 77 1017.8
20260903043510 66 153 2.6 6.1 0.00 0.00 0.00 77 1017.8
20260903043023 66 224 3.5 6.1 0.00 0.00 0.00 77 1017.8
20260903042511 66 214 2.6 7.8 0.00 0.00 0.00 77 1017.9
20260903042014 66 225 3.5 7.8 0.00 0.00 0.00 77 1017.9
20260903041527 66 205 3.5 11.3 0.00 0.00 0.00 77 1018.1
20260903041014 66 221 4.3 11.3 0.00 0.00 0.00 77 1018.1
20260903040514 66 227 3.5 7.0 0.00 0.00 0.00 77 1018.1
20260903040031 66 191 3.5 8.7 0.00 0.00 0.00 78 1018.2
20260903035516 67 242 3.5 8.7 0.00 0.00 0.00 78 1018.4
20260903035016 67 214 4.3 8.7 0.00 0.00 0.00 78 1018.4
20260903034528 67 194 4.3 8.7 0.00 0.00 0.00 77 1018.2
20260903034017 67 194 3.5 10.4 0.00 0.00 0.00 77 1018.1
20260903033515 67 208 4.3 10.4 0.00 0.00 0.00 78 1018.1
20260903033015 67 224 3.5 9.6 0.00 0.00 0.00 78 1018.3
20260903032510 67 146 4.3 8.7 0.00 0.00 0.00 78 1018.4
20260903032016 67 200 2.6 8.7 0.00 0.00 0.00 78 1018.4
20260903031524 67 219 2.6 8.7 0.00 0.00 0.00 78 1018.4
20260903031014 67 225 4.3 8.7 0.00 0.00 0.00 78 1018.5
20260903030513 67 229 2.6 7.0 0.00 0.00 0.00 78 1018.4
20260903030028 67 220 3.5 6.1 0.00 0.00 0.00 79 1018.6
20260903025515 67 205 2.6 9.6 0.00 0.00 0.00 79 1018.5
20260903025014 67 188 5.2 11.3 0.00 0.00 0.00 79 1018.7
20260903024533 67 247 4.3 11.3 0.00 0.00 0.00 79 1018.5
20260903024015 67 219 4.3 8.7 0.00 0.00 0.00 80 1018.7
20260903023517 67 229 3.5 9.6 0.00 0.00 0.00 80 1018.8
20260903023039 67 237 3.5 9.6 0.00 0.00 0.00 81 1018.8
20260903022518 67 232 4.3 10.4 0.00 0.00 0.00 81 1018.8
20260903022016 67 223 5.2 10.4 0.00 0.00 0.00 82 1019.0
20260903021518 67 190 3.5 7.8 0.00 0.00 0.00 83 1018.7
20260903021011 67 214 5.2 7.8 0.00 0.00 0.00 84 1018.9
20260903020515 66 207 4.3 8.7 0.00 0.00 0.00 85 1019.1
20260903020025 66 225 5.2 8.7 0.00 0.00 0.00 85 1019.2
20260903015515 67 231 4.3 7.0 0.00 0.00 0.00 86 1019.2
20260903015014 67 227 3.5 7.0 0.00 0.00 0.00 87 1019.4
20260903014528 67 214 3.5 7.0 0.00 0.00 0.00 88 1019.4
20260903014016 67 234 2.6 5.2 0.00 0.00 0.00 88 1019.5
20260903013516 67 229 1.7 6.1 0.00 0.00 0.00 88 1019.5
20260903013031 67 227 3.5 6.1 0.00 0.00 0.00 88 1019.5
20260903012518 67 212 0.9 2.6 0.00 0.00 0.00 88 1019.4
20260903012015 67 119 0.9 3.5 0.00 0.00 0.00 88 1019.5
20260903011522 67 188 0.9 3.5 0.00 0.00 0.00 88 1019.5
20260903011001 67 282 0.9 6.1 0.00 0.00 0.00 88 1019.6
20260903010515 67 221 2.6 6.1 0.00 0.00 0.00 88 1019.3
20260903010003 67 245 3.5 4.3 0.00 0.00 0.00 88 1019.0
20260903005512 67 178 2.6 4.3 0.00 0.00 0.00 87 1019.3
20260903005002 67 178 0.0 3.5 0.00 0.00 0.00 87 1019.7
20260903004505 67 334 0.9 6.1 0.00 0.00 0.00 87 1019.5
20260903004003 67 273 0.9 6.1 0.00 0.00 0.00 87 1019.3
20260903003504 67 254 1.7 6.1 0.00 0.00 0.00 88 1018.8
20260903003009 67 257 1.7 7.0 0.00 0.00 0.00 88 1018.6
20260903002503 67 224 4.3 9.6 0.00 0.00 0.00 88 1018.5
20260903002008 67 221 4.3 9.6 0.00 0.00 0.00 88 1018.4
20260903001522 67 210 4.3 8.7 0.00 0.00 0.00 88 1018.4
20260903001010 68 221 3.5 8.7 0.00 0.00 0.00 88 1018.4
20260903000516 68 231 3.5 5.2 0.00 0.00 0.00 88 1018.4
20260903000035 68 240 2.6 5.2 0.00 0.00 0.00 88 1018.8
20260902235518 68 227 1.7 4.3 0.00 0.01 0.00 87 1018.8
20260902235004 68 227 0.9 5.2 0.00 0.01 0.00 87 1019.0
20260902234504 68 242 3.5 5.2 0.00 0.01 0.00 87 1019.1
20260902234002 68 221 1.7 3.5 0.00 0.01 0.00 87 1019.1
20260902233504 68 265 0.9 2.6 0.00 0.01 0.00 86 1019.2
20260902233010 69 221 0.9 2.6 0.00 0.01 0.00 86 1019.1
20260902232503 69 334 0.9 2.6 0.00 0.01 0.00 86 1019.3
20260902232003 69 93 0.0 2.6 0.00 0.01 0.00 85 1019.4
20260902231515 69 232 0.0 2.6 0.00 0.01 0.00 85 1019.6
20260902231006 69 221 0.0 3.5 0.00 0.01 0.00 85 1019.8
20260902230511 69 247 0.9 3.5 0.00 0.02 0.00 85 1019.9
20260902230016 69 196 1.7 3.5 0.00 0.02 0.00 85 1019.9
20260902225510 69 190 0.9 6.1 0.00 0.02 0.00 85 1020.0
20260902225013 69 221 0.9 6.1 0.00 0.02 0.00 85 1020.2
20260902224524 69 207 2.6 5.2 0.00 0.02 0.00 85 1020.3
20260902224012 70 165 2.6 4.3 0.00 0.02 0.00 85 1020.4
20260902223502 70 178 0.9 2.6 0.00 0.02 0.00 85 1020.5
20260902223009 70 334 0.9 1.7 0.00 0.02 0.00 84 1020.5
20260902222502 70 161 0.0 3.5 0.00 0.02 0.00 84 1020.5
20260902222004 70 238 0.9 3.5 0.00 0.02 0.00 84 1020.5
20260902221508 70 137 1.7 3.5 0.00 0.02 0.00 84 1020.4
20260902221003 70 178 0.9 3.5 0.00 0.02 0.00 83 1020.6
20260902220507 70 186 1.7 3.5 0.00 0.02 0.00 83 1020.6
20260902220015 70 163 1.7 3.5 0.00 0.02 0.00 83 1020.6
20260902215508 70 178 0.9 3.5 0.00 0.02 0.00 84 1020.6
20260902215010 70 221 0.9 4.3 0.00 0.02 0.00 84 1020.5
20260902214546 70 137 0.9 4.3 0.00 0.02 0.00 84 1020.3
20260902214012 70 153 1.7 3.5 0.00 0.02 0.00 84 1020.3
20260902213513 70 178 0.0 2.6 0.00 0.02 0.00 84 1020.5
20260902213026 70 178 0.9 2.6 0.00 0.02 0.00 84 1020.5
20260902212517 70 334 0.9 2.6 0.00 0.02 0.00 84 1020.4
20260902212017 70 178 0.0 3.5 0.00 0.02 0.00 83 1020.4
20260902211531 70 205 1.7 3.5 0.00 0.02 0.00 83 1020.3
20260902211004 70 178 0.9 2.6 0.00 0.02 0.00 83 1020.3
20260902210503 71 178 0.9 3.5 0.00 0.02 0.00 82 1020.4
20260902210013 71 205 0.0 3.5 0.00 0.02 0.00 82 1020.4
20260902205505 71 227 0.9 3.5 0.00 0.02 0.00 82 1020.4
20260902205007 71 193 1.7 3.5 0.00 0.02 0.00 83 1020.4
20260902204514 71 205 0.9 2.6 0.00 0.02 0.00 80 1020.4
20260902204014 71 221 0.0 3.5 0.00 0.02 0.00 81 1020.4
20260902203512 71 72 0.0 5.2 0.00 0.02 0.00 81 1020.3
20260902203021 71 171 1.7 5.2 0.00 0.02 0.00 81 1020.2
20260902202517 71 213 0.9 3.5 0.00 0.02 0.00 80 1020.2
20260902202015 71 193 1.7 4.3 0.00 0.02 0.00 81 1020.3
20260902201536 70 236 1.7 4.3 0.00 0.02 0.00 80 1020.3
20260902201012 70 225 2.6 3.5 0.00 0.02 0.00 81 1020.6
20260902200514 70 225 0.0 4.3 0.00 0.02 0.00 81 1020.6
20260902200008 70 188 2.6 4.3 0.00 0.02 0.00 80 1020.9
20260902195507 71 265 0.9 3.5 0.00 0.02 0.00 79 1021.0
20260902195005 71 205 1.7 6.1 0.00 0.02 0.00 79 1021.0
20260902194517 71 212 1.7 7.8 0.00 0.02 0.00 79 1020.9
20260902194009 71 243 4.3 7.8 0.00 0.02 0.00 78 1020.9
20260902193510 71 238 1.7 7.0 0.00 0.02 0.00 79 1020.8